Weather History for Triuchirapalli, India

Change the Weather History Date:

Saturday, March 23, 2013

  Actual Average Record
Temperature  
Mean Temperature 87 °F -  
Max Temperature 100 °F 94 °F 102 °F (2014)
Min Temperature 74 °F 79 °F 74 °F (2013)
Cooling Degree Days 22    
Growing Degree Days 37 (Base 50)    
Moisture  
Dew Point 70 °F    
Average Humidity 59    
Maximum Humidity 94    
Minimum Humidity 26    
Precipitation  
Precipitation 0.00 in - - ()
Sea Level Pressure  
Sea Level Pressure 29.80 in    
Wind  
Wind Speed 3 mph ()    
Max Wind Speed 12 mph    
Max Gust Speed -    
Visibility 3.2 miles    
Events      
Averages and records for this station are not official NWS values.
T = Trace of Precipitation, MM = Missing Value Source: Averaged Metar Reports

Daily Weather History Graph

Daily Weather History Graph

Search for Another Location

Airport:

Trip Planner

Search our weather history database for the weather conditions in past years. The results will help you decide how hot, cold, wet, or windy it might be!

Date:

Astronomy

Mar. 23, 2013 Rise Set
Actual Time 6:17 AM IST 6:25 PM IST
Civil Twilight 5:56 AM IST 6:47 PM IST
Nautical Twilight 5:32 AM IST 7:11 PM IST
Astronomical Twilight 5:07 AM IST 7:35 PM IST
Moon 3:01 PM IST (3/23) 2:57 AM IST (3/23)
Length of Visible Light 12h 50m
Length of Day
12h 08m
Waxing Gibbous, 82% of the Moon is Illuminated
Mar 23
Waxing Gibbous
Mar 27
Full
Apr 3
Last Quarter
Apr 10
New
Apr 18
First Quarter

Hourly Weather History & Observations

Time (IST) Temp. Heat Index Dew Point Humidity Pressure Visibility Wind Dir Wind Speed Gust Speed Precip Events Conditions
12:10 AM 78.8 °F - 71.6 °F 78% 29.80 in 3.7 mi ESE 4.6 mph - N/A   Unknown
1:10 AM 78.8 °F - 71.6 °F 78% 29.80 in 3.1 mi Calm Calm - N/A   Haze
1:40 AM 78.8 °F - 71.6 °F 78% 29.80 in 3.1 mi Calm Calm - N/A   Haze
2:10 AM 77.0 °F - 71.6 °F 83% 29.77 in 3.1 mi Calm Calm - N/A   Haze
2:30 AM 77 °F - 72 °F 79% 29.78 in 2 mi Calm Calm - -   Haze
2:40 AM 77.0 °F - 71.6 °F 83% 29.77 in 2.5 mi Calm Calm - N/A   Haze
3:10 AM 77.0 °F - 71.6 °F 83% 29.77 in 2.5 mi Calm Calm - N/A   Haze
3:40 AM 77.0 °F - 71.6 °F 83% 29.77 in 2.5 mi Calm Calm - N/A   Haze
4:10 AM 77.0 °F - 71.6 °F 83% 29.77 in 2.5 mi Calm Calm - N/A   Haze
4:40 AM 77.0 °F - 71.6 °F 83% 29.80 in 2.5 mi Calm Calm - N/A   Haze
5:10 AM 77.0 °F - 71.6 °F 83% 29.80 in 2.5 mi Calm Calm - N/A   Haze
5:30 AM 76 °F - 72 °F 84% 29.80 in 2 mi 2.3 mph - -   Haze
5:40 AM 75.2 °F - 71.6 °F 89% 29.80 in 2.5 mi Variable 2.3 mph - N/A   Haze
6:40 AM 75.2 °F - 73.4 °F 94% 29.83 in 1.2 mi Calm Calm - N/A   Partly Cloudy
7:10 AM 77.0 °F - 71.6 °F 83% 29.83 in 1.2 mi Calm Calm - N/A   Partly Cloudy
7:40 AM 77.0 °F - 71.6 °F 83% 29.86 in 1.2 mi Calm Calm - N/A   Partly Cloudy
8:30 AM 81 °F - 73 °F 70% 29.87 in 1 mi Calm Calm - -   Haze
9:10 AM 84.2 °F 89.6 °F 71.6 °F 66% 29.89 in 2.2 mi Calm Calm - N/A   Haze
9:40 AM 86.0 °F 91.8 °F 71.6 °F 62% 29.89 in 2.5 mi South 2.3 mph - N/A   Haze
10:40 AM 89.6 °F 94.7 °F 69.8 °F 52% 29.89 in 3.7 mi ESE 4.6 mph - N/A   Partly Cloudy
11:10 AM 91.4 °F 95.4 °F 68.0 °F 46% 29.86 in 3.7 mi Calm Calm - N/A   Partly Cloudy
11:30 AM 92 °F - 66 °F 33% 29.85 in 2 mi East 3.5 mph - -   Haze
11:40 AM 93.2 °F 97.7 °F 68.0 °F 44% 29.86 in 4.3 mi South 3.5 mph - N/A   Partly Cloudy
12:10 PM 95.0 °F 98.5 °F 66.2 °F 39% 29.83 in 5.0 mi SE 5.8 mph - N/A   Unknown
12:40 PM 96.8 °F 100.7 °F 66.2 °F 37% 29.80 in - ESE 5.8 mph - N/A   Clear
1:10 PM 98.6 °F 102.8 °F 66.2 °F 35% 29.80 in - ENE 4.6 mph - N/A   Clear
1:40 PM 100.4 °F 103.6 °F 64.4 °F 31% 29.77 in - SSE 6.9 mph - N/A   Clear
2:10 PM 100.4 °F 103.6 °F 64.4 °F 31% 29.74 in - SSE 6.9 mph - N/A   Clear
2:30 PM 98 °F - 66 °F 26% 29.73 in 6 mi SE 2.3 mph - -   Haze
2:40 PM 98.6 °F 101.0 °F 64.4 °F 32% 29.74 in - South 4.6 mph - N/A   Clear
3:10 PM 98.6 °F 102.8 °F 66.2 °F 35% 29.71 in - East 10.4 mph - N/A   Clear
3:40 PM 96.8 °F 101.8 °F 68.0 °F 39% 29.71 in - East 6.9 mph - N/A   Clear
4:10 PM 96.8 °F 101.8 °F 68.0 °F 39% 29.71 in - ESE 4.6 mph - N/A   Clear
4:40 PM 95.0 °F 99.5 °F 68.0 °F 41% 29.68 in - NE 4.6 mph - N/A   Clear
5:10 PM 95.0 °F 99.5 °F 68.0 °F 41% 29.71 in - East 6.9 mph - N/A   Clear
5:30 PM 97 °F - 67 °F 28% 29.72 in 6 mi SE 6.9 mph - -   Clear
5:40 PM 96.8 °F 100.7 °F 66.2 °F 37% 29.74 in 5.0 mi SSE 11.5 mph - N/A   Unknown
6:10 PM 95.0 °F 99.5 °F 68.0 °F 41% 29.74 in 5.0 mi South 8.1 mph - N/A   Unknown
6:40 PM 95.0 °F 101.3 °F 69.8 °F 44% 29.74 in 3.7 mi SE 8.1 mph - N/A   Partly Cloudy
7:10 PM 91.4 °F 96.8 °F 69.8 °F 49% 29.74 in 3.7 mi SE 10.4 mph - N/A   Partly Cloudy
7:40 PM 89.6 °F 94.7 °F 69.8 °F 52% 29.77 in 3.7 mi SSE 10.4 mph - N/A   Partly Cloudy
8:10 PM 87.8 °F 93.8 °F 71.6 °F 58% 29.77 in 3.7 mi SSE 8.1 mph - N/A   Partly Cloudy
8:30 PM 86 °F - 70 °F 49% 29.80 in 2 mi SE 9.2 mph - -   Haze
8:40 PM 86.0 °F 91.8 °F 71.6 °F 62% 29.80 in 3.7 mi SSE 9.2 mph - N/A   Partly Cloudy
9:10 PM 86.0 °F 91.8 °F 71.6 °F 62% 29.83 in 3.7 mi SSE 6.9 mph - N/A   Partly Cloudy
9:40 PM 84.2 °F 88.4 °F 69.8 °F 62% 29.86 in 3.7 mi SSE 9.2 mph - N/A   Unknown
10:10 PM 82.4 °F 86.3 °F 69.8 °F 66% 29.86 in 3.7 mi SSE 10.4 mph - N/A   Unknown
10:40 PM 82.4 °F 86.3 °F 69.8 °F 66% 29.86 in 3.7 mi SE 9.2 mph - N/A   Unknown
11:10 PM 80.6 °F 83.9 °F 69.8 °F 70% 29.86 in 3.7 mi ESE 6.9 mph - N/A   Unknown
11:30 PM 80 °F - 72 °F 72% 29.86 in 2 mi East 6.9 mph - -   Haze
11:40 PM 80.6 °F 84.6 °F 71.6 °F 74% 29.86 in 3.7 mi ESE 4.6 mph - N/A   Unknown